Weather History for HEAX - March, 2013

Change the Weather History Date:

Wednesday, March 6, 2013

  Actual Average Record
Temperature  
Mean Temperature 62 °F -  
Max Temperature 68 °F 68 °F 84 °F (2005)
Min Temperature 55 °F 52 °F 46 °F (2012)
Degree Days  
Heating Degree Days 3    
Growing Degree Days 12 (Base 50)    
Moisture  
Dew Point 48 °F    
Average Humidity 60    
Maximum Humidity 77    
Minimum Humidity 40    
Precipitation  
Precipitation 0.00 in 0.01 in - ()
Sea Level Pressure  
Sea Level Pressure 30.20 in    
Wind  
Wind Speed 9 mph ()    
Max Wind Speed 14 mph    
Max Gust Speed -    
Visibility 6.2 miles    
Events      
Averages and records for this station are not official NWS values.
T = Trace of Precipitation, MM = Missing Value Source: Averaged Metar Reports

Daily Weather History Graph

Daily Weather History Graph

Search for Another Location

Airport or City:

Trip Planner

Search our weather history database for the weather conditions in past years. The results will help you decide how hot, cold, wet, or windy it might be!

Date:

Astronomy

Mar. 06, 2013 Rise Set
Actual Time 6:21 AM EET 6:02 PM EET
Civil Twilight 5:57 AM EET 6:26 PM EET
Nautical Twilight 5:28 AM EET 6:54 PM EET
Astronomical Twilight 5:00 AM EET 7:22 PM EET
Moon 1:55 AM EET (3/6) 12:38 PM EET (3/6)
Length of Visible Light 12h 29m
Length of Day
11h 40m
Waning Crescent, 33% of the Moon is Illuminated
Mar 6
Waning Crescent
Mar 11
New
Mar 19
First Quarter
Mar 27
Full
Apr 3
Last Quarter

Hourly Weather History & Observations

Time (EET) Temp. Dew Point Humidity Pressure Visibility Wind Dir Wind Speed Gust Speed Precip Events Conditions
12:00 AM 59.0 °F 48.2 °F 67% 30.15 in 6.2 mi North 10.4 mph - N/A   Partly Cloudy
1:00 AM 59.0 °F 48.2 °F 67% 30.15 in 6.2 mi North 9.2 mph - N/A   Partly Cloudy
2:00 AM 59.0 °F 48.2 °F 67% 30.15 in 6.2 mi North 11.5 mph - N/A   Partly Cloudy
3:00 AM 59.0 °F 50.0 °F 72% 30.15 in 6.2 mi NNW 9.2 mph - N/A   Partly Cloudy
4:00 AM 59.0 °F 50.0 °F 72% 30.15 in 6.2 mi North 10.4 mph - N/A   Partly Cloudy
5:00 AM 57.2 °F 48.2 °F 72% 30.18 in 6.2 mi North 6.9 mph - N/A   Scattered Clouds
6:00 AM 57.2 °F 48.2 °F 72% 30.21 in 6.2 mi NNE 5.8 mph - N/A   Scattered Clouds
7:00 AM 57.2 °F 48.2 °F 72% 30.21 in 6.2 mi NE 5.8 mph - N/A   Scattered Clouds
8:00 AM 60 °F 47 °F 51% 30.22 in 6 mi NNE 10.4 mph - -   Partly Cloudy
8:00 AM 60.8 °F 46.4 °F 59% 30.21 in 6.2 mi NNE 10.4 mph - N/A   Scattered Clouds
9:00 AM 62.6 °F 44.6 °F 52% 30.21 in 6.2 mi NE 13.8 mph - N/A   Partly Cloudy
10:00 AM 64.4 °F 46.4 °F 52% 30.21 in 6.2 mi NE 11.5 mph - N/A   Partly Cloudy
11:00 AM 66.2 °F 48.2 °F 52% 30.24 in 6.2 mi NE 9.2 mph - N/A   Partly Cloudy
12:00 PM 68.0 °F 48.2 °F 49% 30.21 in 6.2 mi NE 11.5 mph - N/A   Partly Cloudy
1:00 PM 68.0 °F 50.0 °F 52% 30.21 in 6.2 mi NE 11.5 mph - N/A   Partly Cloudy
2:00 PM 68 °F 49 °F 40% 30.21 in 6 mi NNE 11.5 mph - -   Scattered Clouds
2:00 PM 68.0 °F 50.0 °F 52% 30.21 in 6.2 mi NNE 11.5 mph - N/A   Partly Cloudy
3:00 PM 64.4 °F 42.8 °F 45% 30.21 in - North - - N/A   Partly Cloudy
4:00 PM 64.4 °F 48.2 °F 56% 30.18 in 6.2 mi NE 11.5 mph - N/A   Partly Cloudy
5:00 PM 62.6 °F 50.0 °F 63% 30.18 in 6.2 mi NE 13.8 mph - N/A   Partly Cloudy
6:00 PM 62.6 °F 48.2 °F 59% 30.21 in 6.2 mi NE 12.7 mph - N/A   Partly Cloudy
7:00 PM 60.8 °F 48.2 °F 63% 30.21 in 6.2 mi ENE 9.2 mph - N/A   Partly Cloudy
8:00 PM 60 °F 48 °F 55% 30.22 in 6 mi East 10.4 mph - -  
8:00 PM 60.8 °F 48.2 °F 63% 30.21 in - East 10.4 mph - N/A   Clear
9:00 PM 60.8 °F 48.2 °F 63% 30.21 in - East 10.4 mph - N/A   Clear
10:00 PM 57.2 °F 50.0 °F 77% 30.21 in - East 6.9 mph - N/A   Clear
11:00 PM 55.4 °F 42.8 °F 63% 30.24 in - East 3.5 mph - N/A   Clear